Location: ?????????
(53.2086°N, 54.0693°E)
Time: 00:20:49
(UTC+00:00)

CORIOLIS - Pass Details

Date: 08 December 2019
Orbit: 818 x 839 km, 98.7° (Epoch: 19 January)

Event Time Altitude Azimuth Distance (km) Brightness Sun altitude
Rises 13:12:12 0° 148° (SSE) 3,383 7.3 -9.1°
Reaches altitude 10° 13:14:35 10° 145° (SE) 2,453 6.5 -9.4°
Maximum altitude 13:19:54 58° 67° (ENE) 974 4.2 -10.2°
Drops below altitude 10° 13:25:16 10° 350° (N) 2,467 6.5 -10.9°
Sets 13:27:40 0° 347° (NNW) 3,404 7.2 -11.2°
